Location: Clarion
(42.7316°N, 93.7330°W)
Time: 09:20:53
(UTC+00:00)

Cosmos 909 Rocket - Pass Details

Date: 22 April 2026
Orbit: 990 x 2089 km, 65.9° (Epoch: 17 May)

Event Time Altitude Azimuth Distance (km) Brightness Sun altitude
Exits shadow 07:28:37 69° 350° (N) 1,060 4.2 -32.4°
Drops below altitude 10° 07:34:18 10° 30° (NNE) 2,785 7.2 -32.0°
Sets 07:36:55 0° 32° (NNE) 3,787 8.2 -31.8°
